Temp
74 73 73 72 71 71 71 71 70 70 71 71 71 71 71 70 70 70 70 70 70 70 70 71 71 71 70 69 69 70 70 70 70 70 69 68 68 68 68 68 68 67 67 66 65 64 63 63 63 63 63 63 63 63 63 63 62 61 60 59 59 58 57 56 55 54 52 50 50
74 74 73 72 71 71 71 70 70 70 70 71 71 71 71 71 70 70 70 70 71 71 71 71 71 71 70 70 69 70 70 70 70 69 69 68 69 69 69 69 69 69 68 67 66 65 64 63 62 62 63 64 64 64 64 65 65 63 62 61 60 58 56 54 54 53 51 50 50
74 74 73 72 72 71 70 70 70 70 70 71 71 71 71 71 71 71 71 71 71 71 71 71 71 71 70 70 69 69 69 70 70 70 69 69 69 69 69 69 69 69 68 67 67 66 66 65 63 62 61 61 63 63 64 64 63 61 60 59 58 57 54 52 52 51 50 50 50
74 74 73 72 71 71 71 70 70 70 70 71 71 71 71 71 71 71 71 71 71 71 71 71 71 71 70 70 68 68 68 69 69 69 69 69 69 69 68 69 68 68 68 68 68 68 67 66 63 61 59 59 58 57 56 55 54 54 54 55 54 53 52 51 51 51 50 49 50
74 74 73 72 72 71 71 71 71 71 71 71 71 71 71 71 71 71 71 71 71 71 71 71 71 70 70 69 67 67 67 68 68 68 69 69 68 68 68 67 68 67 67 67 67 67 66 65 62 61 60 59 56 55 55 54 52 52 52 51 51 51 51 51 50 50 50 49 49
74 73 73 73 72 72 72 72 72 71 71 71 71 71 71 71 71 71 70 70 71 71 71 70 69 68 68 67 66 66 66 66 67 67 67 67 67 67 67 67 67 67 67 66 65 65 65 64 63 62 61 59 57 55 54 53 52 51 51 50 50 50 50 50 50 50 49 49 49
74 73 73 73 72 72 72 72 72 72 72 71 71 71 71 71 71 71 70 71 70 69 68 68 68 67 67 66 66 65 65 65 66 66 66 67 67 67 67 67 67 67 66 66 65 65 65 65 63 62 60 58 56 55 55 54 52 51 50 50 50 50 50 50 50 50 50 50 49
73 73 73 73 72 72 72 72 72 72 71 71 71 71 71 71 71 70 69 70 68 67 67 67 68 67 66 67 65 64 64 65 65 66 66 66 66 66 65 65 64 64 63 63 63 62 60 59 57 56 55 54 53 53 54 53 52 52 51 51 51 50 51 51 51 51 50 50 50
73 72 72 72 72 72 72 72 72 71 71 71 71 71 71 70 69 68 67 68 67 67 67 67 67 66 66 66 65 64 64 63 64 64 64 64 64 64 64 63 62 61 60 59 59 58 57 55 53 53 53 52 52 52 52 52 52 52 52 52 52 52 52 52 52 51 50 50 50
72 72 71 71 71 71 71 71 71 71 71 71 71 71 70 68 67 67 67 68 67 67 67 67 67 67 66 66 65 65 63 62 63 63 63 64 64 64 63 62 60 60 59 58 57 56 55 54 53 53 53 52 52 52 52 52 52 52 52 51 52 52 53 53 52 51 51 50 50
71 71 71 71 70 70 70 70 71 71 71 70 70 69 68 66 67 67 67 68 68 68 68 68 68 68 67 66 65 64 63 62 63 65 66 66 65 64 62 61 60 59 58 57 55 54 54 53 53 53 53 52 52 52 52 53 52 52 52 53 53 53 53 53 52 52 51 50 50
70 70 70 70 70 70 70 70 70 70 69 67 68 68 67 66 67 67 67 67 68 68 68 68 67 66 65 63 63 63 63 65 66 66 66 66 65 63 61 60 59 58 57 55 54 53 53 53 53 53 53 53 53 53 54 53 53 53 53 53 53 53 53 53 52 51 50 50 49
70 70 70 70 69 69 69 69 69 68 67 66 67 67 66 66 67 67 67 67 68 68 67 66 65 64 63 62 63 64 65 66 66 66 65 64 63 61 59 57 57 56 55 55 54 54 54 54 54 54 54 54 55 55 55 55 54 54 54 53 53 52 52 51 51 51 50 50 50
70 69 69 69 69 68 68 68 67 66 66 65 67 67 67 67 67 67 67 68 68 66 65 63 62 62 63 64 65 65 65 65 64 63 62 61 60 59 57 56 56 55 55 55 55 56 56 57 56 56 55 55 55 56 55 55 55 54 54 53 52 52 52 52 51 51 50 49 49
69 69 69 68 68 68 67 66 66 66 66 65 66 67 67 67 67 67 67 67 66 64 62 61 61 62 63 64 64 64 64 63 62 60 59 58 58 57 57 56 56 56 57 57 57 57 58 58 57 57 56 56 56 56 55 55 55 55 54 53 53 52 52 52 51 51 50 49 48
68 68 68 68 67 67 66 65 66 66 66 65 65 66 67 67 66 66 65 65 63 62 62 62 62 63 62 62 62 61 61 59 58 57 56 56 56 56 56 56 56 57 57 58 58 58 58 57 57 57 57 57 56 56 55 55 55 54 53 53 53 52 52 51 51 50 50 49 49
68 67 67 67 66 66 65 65 66 66 66 66 65 65 65 65 64 63 63 62 62 62 62 62 63 62 60 59 58 58 57 57 56 56 56 56 56 56 56 56 55 56 56 57 57 57 57 57 57 58 58 57 57 56 56 55 55 54 53 53 52 52 51 51 50 50 49 49 49
67 66 66 66 65 65 65 65 65 65 65 65 64 64 63 63 62 62 61 61 61 61 61 62 61 60 58 56 56 56 56 56 56 56 56 57 57 57 57 56 55 55 56 56 56 56 56 56 57 57 57 57 56 56 55 55 54 53 53 52 51 50 49 48 48 49 49 49 49
66 66 66 66 66 65 65 65 64 63 63 63 63 62 62 61 61 60 60 60 61 60 60 59 58 57 56 55 55 55 55 56 57 57 58 58 59 59 58 57 56 56 56 56 56 56 56 57 57 57 57 56 55 55 54 54 54 53 52 51 50 49 47 46 47 48 49 49 49
64 65 65 65 65 64 63 62 61 61 61 61 61 60 60 60 60 59 59 59 59 59 57 56 55 54 54 55 56 56 57 58 59 59 60 60 60 59 58 58 56 56 56 56 56 56 56 57 57 57 57 56 55 54 53 53 53 52 51 50 50 48 47 48 48 49 49 49 50
61 61 61 61 61 60 60 59 59 59 59 59 58 58 58 58 58 57 57 56 56 56 55 54 54 54 55 55 56 57 58 59 60 60 60 60 59 58 57 56 54 53 52 52 53 54 54 56 56 56 55 55 54 53 52 52 52 51 50 51 50 49 49 49 49 49 49 49 50
57 57 57 56 57 57 57 57 58 58 57 56 55 55 54 54 54 54 54 54 53 53 53 54 54 55 55 56 57 57 58 59 59 59 59 58 57 56 56 54 51 48 47 49 49 48 49 52 51 50 49 49 49 50 51 51 51 51 50 50 50 50 50 50 49 49 49 49 49
54 54 54 54 55 55 56 56 56 55 55 54 53 52 52 52 52 52 53 52 52 52 53 54 55 56 56 57 57 57 57 57 57 57 57 57 56 55 54 52 49 45 43 46 44 41 41 44 43 41 41 43 46 48 49 50 49 48 47 48 49 49 49 49 49 48 48 49 49
53 53 53 53 54 54 55 55 54 53 53 52 52 52 52 52 52 53 53 53 54 54 54 55 55 55 56 57 57 57 56 56 56 55 56 56 55 55 53 52 50 46 44 45 45 43 42 43 40 39 41 45 47 48 48 47 44 43 44 47 48 49 48 48 48 48 48 48 48
53 53 53 53 53 53 53 53 52 52 52 52 52 52 52 53 54 54 54 54 54 54 54 54 54 54 55 55 56 56 56 55 55 55 55 55 55 55 54 54 52 47 44 48 49 50 49 49 47 47 48 50 49 48 46 43 43 45 48 48 48 48 48 48 48 48 48 47 47
52 52 52 52 52 52 52 52 52 52 52 53 53 53 53 54 54 55 54 54 54 54 54 54 54 54 54 54 54 54 54 54 54 54 54 54 55 55 55 55 54 47 42 48 50 51 50 50 51 51 51 51 50 48 46 43 45 46 47 47 48 48 48 48 48 48 48 48 48
51 51 51 51 52 52 52 52 53 53 53 53 54 54 54 54 54 54 54 54 53 53 53 53 53 53 53 53 52 52 52 53 53 54 54 54 55 54 55 55 54 49 44 48 50 51 50 50 50 50 50 50 48 46 45 45 45 45 46 47 47 47 48 48 48 48 48 48 48
51 51 52 52 52 52 52 53 53 53 53 53 54 54 54 54 54 53 53 53 53 52 52 52 52 52 52 52 52 52 52 53 53 54 54 54 54 54 54 55 54 53 52 52 51 51 50 49 48 48 48 48 47 46 45 45 46 47 47 47 47 47 47 47 48 48 48 48 49
52 52 52 53 52 52 53 53 52 53 53 53 53 53 53 53 53 53 53 53 52 52 51 51 51 51 51 51 51 52 53 53 53 54 54 54 54 54 54 54 54 53 52 52 51 50 49 48 47 47 47 47 47 47 46 46 47 47 48 48 47 47 47 47 47 47 48 48 49
53 53 53 53 52 52 52 52 53 53 53 53 53 53 53 52 52 52 52 52 51 51 51 51 51 51 51 51 52 52 53 53 54 54 54 54 54 54 54 54 53 52 51 51 50 49 48 47 46 46 46 46 46 46 46 46 46 47 47 47 47 47 47 47 47 47 47 48 48
54 53 53 53 52 52 52 53 53 53 53 53 53 52 52 51 51 51 50 50 50 50 51 51 51 51 51 52 52 52 53 53 53 54 54 53 53 53 53 52 51 50 49 49 48 48 47 47 46 46 46 46 46 46 45 45 45 46 46 46 46 46 46 46 46 46 46 47 47
54 53 53 52 52 52 52 53 53 53 52 52 52 51 50 50 49 50 50 50 50 50 51 51 50 51 51 51 52 52 52 52 52 53 53 53 52 52 52 51 50 49 48 48 47 47 47 46 46 46 46 46 46 46 46 45 45 45 45 45 45 45 45 46 46 46 46 46 46
53 53 52 52 51 52 52 52 52 52 51 51 50 49 49 48 49 49 50 50 50 51 51 51 50 50 51 51 51 51 51 52 52 52 52 52 51 51 50 50 49 48 47 47 47 47 46 46 46 46 46 46 46 46 46 45 45 45 44 44 43 44 44 44 45 45 46 46 46
52 52 52 51 51 51 51 51 51 50 50 49 49 48 48 47 47 48 48 49 50 50 50 51 51 51 51 51 51 51 51 51 51 51 51 51 51 50 49 49 49 48 47 47 46 46 46 46 45 45 45 45 46 46 46 46 45 44 44 43 43 43 43 43 44 45 45 46 46
52 52 51 51 51 50 50 50 50 50 49 48 48 47 47 47 47 47 48 48 49 49 49 50 50 51 51 51 51 51 51 51 51 51 51 50 49 49 48 48 47 47 46 46 46 46 45 45 45 45 45 45 45 45 45 45 44 44 44 43 43 42 42 42 43 44 45 45 46
52 51 51 50 50 50 50 49 49 49 48 47 47 46 46 47 47 47 48 48 48 49 49 49 49 50 50 50 50 51 51 51 51 51 50 50 49 48 47 47 46 46 45 45 45 45 45 44 44 44 44 45 45 45 45 44 44 43 43 43 42 42 42 42 43 43 44 45 45
52 51 51 50 50 50 49 49 48 48 47 46 46 46 46 46 47 48 48 49 48 48 48 48 48 48 48 49 49 50 50 50 50 50 50 49 49 48 47 46 46 45 45 45 44 44 44 44 44 44 44 44 44 44 44 44 43 43 43 42 42 42 42 43 43 43 43 44 44
52 51 51 50 49 49 49 48 47 47 46 46 46 46 46 47 47 48 48 48 48 47 47 47 47 47 47 48 48 49 49 50 50 50 49 49 48 47 46 45 45 45 44 44 44 44 43 43 43 44 44 44 44 44 44 43 43 43 42 42 42 42 42 43 43 43 43 43 43
52 51 51 50 49 48 48 47 47 46 45 45 46 46 47 47 47 47 48 48 47 47 46 46 46 46 47 47 48 48 48 49 49 49 49 49 48 47 46 45 45 44 44 43 43 43 43 43 43 43 43 44 44 44 43 43 42 42 42 42 41 42 42 42 43 43 43 43 42
51 51 50 49 49 48 47 47 46 45 45 45 45 46 46 46 46 47 47 47 47 46 46 45 45 46 46 47 47 47 47 47 48 48 48 48 48 47 46 46 45 45 44 43 43 43 43 43 43 43 43 44 44 44 43 42 41 41 41 41 41 41 41 42 42 42 42 43 42
50 50 49 49 48 47 47 46 45 45 45 45 45 45 46 46 46 46 47 47 46 46 46 45 45 46 46 46 46 45 45 46 46 47 48 48 48 47 47 47 46 45 45 44 43 43 43 43 43 43 43 43 44 43 43 42 41 40 40 40 40 40 40 40 41 41 42 42 42
MSLP
1009.55 1009.79 1009.95 1010.19 1010.43 1010.67 1010.91 1011.11 1011.27 1011.47 1011.67 1011.83 1011.95 1012.11 1012.27 1012.43 1012.63 1012.75 1012.91 1013.03 1013.11 1013.27 1013.35 1013.43 1013.55 1013.67 1013.83 1013.99 1014.15 1014.27 1014.39 1014.55 1014.67 1014.83 1014.99 1015.15 1015.27 1015.39 1015.55 1015.71 1015.87 1015.99 1016.15 1016.31 1016.55 1016.67 1016.83 1016.95 1017.07 1017.15 1017.27 1017.31 1017.43 1017.55 1017.59 1017.67 1017.83 1017.95 1018.03 1018.11 1018.23 1018.35 1018.43 1018.55 1018.59 1018.75 1018.87 1019.03 1019.11
1009.43 1009.67 1009.87 1010.11 1010.39 1010.63 1010.83 1011.07 1011.27 1011.43 1011.59 1011.75 1011.87 1012.03 1012.23 1012.39 1012.55 1012.67 1012.83 1012.95 1013.03 1013.15 1013.27 1013.39 1013.47 1013.59 1013.75 1013.91 1014.07 1014.23 1014.35 1014.47 1014.63 1014.79 1014.95 1015.11 1015.27 1015.35 1015.47 1015.59 1015.71 1015.87 1016.03 1016.19 1016.39 1016.59 1016.75 1016.91 1017.07 1017.11 1017.15 1017.23 1017.27 1017.39 1017.43 1017.43 1017.55 1017.67 1017.83 1017.95 1018.11 1018.27 1018.43 1018.55 1018.67 1018.79 1018.95 1019.07 1019.19
1009.31 1009.55 1009.79 1010.07 1010.31 1010.55 1010.83 1011.03 1011.23 1011.39 1011.55 1011.71 1011.83 1011.99 1012.15 1012.35 1012.47 1012.59 1012.71 1012.87 1012.99 1013.07 1013.19 1013.31 1013.39 1013.55 1013.67 1013.83 1014.07 1014.19 1014.31 1014.39 1014.55 1014.71 1014.83 1014.99 1015.15 1015.31 1015.39 1015.55 1015.63 1015.79 1015.95 1016.11 1016.27 1016.39 1016.51 1016.71 1016.87 1017.03 1017.15 1017.23 1017.23 1017.27 1017.27 1017.31 1017.51 1017.67 1017.83 1017.95 1018.11 1018.31 1018.51 1018.63 1018.71 1018.83 1018.99 1019.07 1019.11
1009.23 1009.43 1009.67 1009.95 1010.23 1010.43 1010.67 1010.87 1011.11 1011.27 1011.47 1011.67 1011.83 1011.95 1012.11 1012.27 1012.39 1012.55 1012.67 1012.79 1012.91 1013.03 1013.15 1013.27 1013.35 1013.51 1013.67 1013.83 1014.03 1014.23 1014.31 1014.39 1014.51 1014.67 1014.83 1014.95 1015.07 1015.27 1015.39 1015.51 1015.63 1015.75 1015.87 1015.99 1016.11 1016.19 1016.35 1016.55 1016.75 1016.99 1017.15 1017.27 1017.31 1017.43 1017.55 1017.75 1017.87 1018.03 1018.11 1018.19 1018.31 1018.43 1018.59 1018.71 1018.83 1018.91 1018.99 1019.03 1019.07
1009.11 1009.35 1009.59 1009.87 1010.11 1010.31 1010.55 1010.75 1010.95 1011.19 1011.39 1011.59 1011.79 1011.95 1012.11 1012.23 1012.35 1012.47 1012.59 1012.75 1012.87 1012.99 1013.11 1013.19 1013.35 1013.55 1013.67 1013.87 1014.07 1014.23 1014.35 1014.47 1014.55 1014.67 1014.79 1014.95 1015.07 1015.23 1015.35 1015.51 1015.59 1015.71 1015.83 1015.95 1016.07 1016.15 1016.31 1016.55 1016.79 1016.99 1017.11 1017.27 1017.47 1017.59 1017.71 1017.95 1018.07 1018.23 1018.35 1018.39 1018.55 1018.59 1018.67 1018.79 1018.83 1018.91 1018.99 1018.99 1019.03
1009.07 1009.31 1009.55 1009.83 1010.03 1010.27 1010.51 1010.67 1010.87 1011.11 1011.31 1011.55 1011.71 1011.87 1011.99 1012.15 1012.27 1012.43 1012.55 1012.67 1012.79 1012.95 1013.07 1013.27 1013.39 1013.59 1013.75 1013.95 1014.11 1014.27 1014.39 1014.55 1014.63 1014.71 1014.83 1014.99 1015.07 1015.19 1015.31 1015.47 1015.55 1015.67 1015.79 1015.95 1016.11 1016.23 1016.31 1016.55 1016.71 1016.87 1017.07 1017.27 1017.43 1017.67 1017.87 1018.03 1018.15 1018.27 1018.39 1018.51 1018.59 1018.67 1018.75 1018.83 1018.83 1018.91 1018.95 1018.95 1018.91
1008.99 1009.27 1009.51 1009.75 1009.95 1010.23 1010.43 1010.63 1010.83 1011.03 1011.27 1011.47 1011.67 1011.79 1011.91 1012.03 1012.19 1012.35 1012.47 1012.63 1012.75 1012.95 1013.15 1013.31 1013.43 1013.63 1013.83 1013.99 1014.11 1014.31 1014.47 1014.55 1014.67 1014.75 1014.87 1014.99 1015.07 1015.15 1015.27 1015.43 1015.55 1015.63 1015.75 1015.95 1016.07 1016.19 1016.31 1016.43 1016.67 1016.83 1016.99 1017.27 1017.47 1017.67 1017.83 1017.99 1018.11 1018.27 1018.39 1018.47 1018.55 1018.67 1018.71 1018.75 1018.79 1018.83 1018.83 1018.83 1018.83
1008.99 1009.23 1009.47 1009.67 1009.91 1010.11 1010.35 1010.55 1010.75 1010.99 1011.23 1011.39 1011.55 1011.67 1011.83 1011.95 1012.11 1012.31 1012.51 1012.67 1012.83 1013.03 1013.23 1013.39 1013.47 1013.67 1013.83 1013.95 1014.15 1014.35 1014.51 1014.59 1014.67 1014.75 1014.87 1014.99 1015.11 1015.23 1015.35 1015.47 1015.63 1015.79 1015.95 1016.07 1016.23 1016.39 1016.55 1016.71 1016.91 1017.07 1017.23 1017.39 1017.55 1017.67 1017.83 1017.99 1018.11 1018.19 1018.27 1018.35 1018.47 1018.59 1018.67 1018.67 1018.67 1018.71 1018.71 1018.67 1018.71
1009.03 1009.27 1009.47 1009.67 1009.91 1010.11 1010.31 1010.55 1010.75 1010.95 1011.15 1011.31 1011.47 1011.59 1011.79 1011.95 1012.19 1012.39 1012.59 1012.75 1012.91 1013.07 1013.23 1013.39 1013.51 1013.67 1013.87 1013.99 1014.15 1014.35 1014.47 1014.63 1014.75 1014.87 1014.99 1015.11 1015.19 1015.31 1015.43 1015.59 1015.83 1015.99 1016.19 1016.35 1016.47 1016.59 1016.79 1016.99 1017.11 1017.27 1017.39 1017.55 1017.67 1017.83 1017.95 1018.07 1018.11 1018.15 1018.23 1018.31 1018.39 1018.43 1018.55 1018.55 1018.55 1018.59 1018.63 1018.63 1018.67
1009.03 1009.27 1009.51 1009.75 1009.95 1010.15 1010.35 1010.55 1010.79 1010.99 1011.11 1011.31 1011.43 1011.63 1011.83 1012.03 1012.27 1012.47 1012.63 1012.71 1012.91 1013.07 1013.23 1013.35 1013.55 1013.67 1013.83 1013.95 1014.11 1014.31 1014.51 1014.67 1014.83 1014.91 1014.99 1015.07 1015.15 1015.27 1015.47 1015.67 1015.87 1016.07 1016.27 1016.43 1016.63 1016.79 1016.91 1017.11 1017.27 1017.35 1017.43 1017.59 1017.71 1017.87 1017.99 1018.07 1018.11 1018.15 1018.27 1018.31 1018.31 1018.31 1018.31 1018.39 1018.43 1018.51 1018.55 1018.59 1018.63
1009.07 1009.31 1009.55 1009.79 1009.99 1010.23 1010.39 1010.63 1010.83 1010.99 1011.15 1011.35 1011.51 1011.71 1011.95 1012.15 1012.31 1012.47 1012.63 1012.75 1012.91 1013.07 1013.19 1013.31 1013.51 1013.63 1013.75 1013.95 1014.15 1014.35 1014.55 1014.71 1014.79 1014.83 1014.87 1014.99 1015.11 1015.27 1015.55 1015.75 1015.95 1016.11 1016.31 1016.55 1016.75 1016.95 1017.07 1017.15 1017.27 1017.39 1017.55 1017.67 1017.79 1017.87 1017.95 1018.03 1018.11 1018.15 1018.19 1018.19 1018.23 1018.23 1018.23 1018.27 1018.39 1018.47 1018.55 1018.59 1018.63
1009.15 1009.39 1009.55 1009.79 1010.07 1010.27 1010.47 1010.67 1010.83 1011.03 1011.27 1011.51 1011.63 1011.83 1012.11 1012.27 1012.39 1012.51 1012.67 1012.83 1012.91 1013.03 1013.15 1013.31 1013.51 1013.67 1013.87 1014.11 1014.27 1014.39 1014.55 1014.59 1014.63 1014.67 1014.79 1014.95 1015.15 1015.39 1015.63 1015.83 1016.03 1016.23 1016.39 1016.67 1016.83 1016.99 1017.11 1017.19 1017.27 1017.39 1017.55 1017.67 1017.79 1017.83 1017.87 1017.95 1017.99 1018.03 1018.07 1018.11 1018.15 1018.15 1018.19 1018.23 1018.35 1018.51 1018.59 1018.63 1018.67
1009.19 1009.39 1009.67 1009.87 1010.11 1010.35 1010.55 1010.71 1010.95 1011.19 1011.43 1011.67 1011.71 1011.91 1012.11 1012.27 1012.43 1012.55 1012.71 1012.83 1012.91 1013.07 1013.27 1013.51 1013.67 1013.87 1014.07 1014.19 1014.27 1014.35 1014.43 1014.51 1014.59 1014.71 1014.91 1015.11 1015.31 1015.55 1015.83 1015.99 1016.15 1016.35 1016.55 1016.71 1016.87 1016.99 1017.11 1017.19 1017.27 1017.35 1017.39 1017.51 1017.55 1017.63 1017.71 1017.83 1017.87 1017.95 1017.95 1018.03 1018.11 1018.15 1018.27 1018.31 1018.39 1018.47 1018.55 1018.59 1018.59
1009.27 1009.51 1009.71 1009.95 1010.19 1010.39 1010.63 1010.83 1011.07 1011.31 1011.51 1011.67 1011.79 1011.95 1012.15 1012.31 1012.47 1012.59 1012.71 1012.83 1012.99 1013.23 1013.43 1013.67 1013.91 1014.07 1014.11 1014.15 1014.23 1014.31 1014.43 1014.59 1014.75 1014.95 1015.15 1015.35 1015.55 1015.75 1015.95 1016.11 1016.27 1016.39 1016.55 1016.67 1016.83 1016.91 1016.99 1017.03 1017.11 1017.23 1017.31 1017.39 1017.51 1017.55 1017.67 1017.79 1017.83 1017.87 1017.95 1018.03 1018.11 1018.15 1018.19 1018.27 1018.35 1018.39 1018.51 1018.55 1018.59
1009.35 1009.55 1009.79 1009.99 1010.27 1010.47 1010.71 1010.99 1011.15 1011.35 1011.55 1011.71 1011.87 1011.99 1012.15 1012.31 1012.47 1012.63 1012.75 1012.95 1013.15 1013.39 1013.63 1013.79 1013.95 1014.07 1014.15 1014.23 1014.35 1014.47 1014.67 1014.83 1014.99 1015.19 1015.39 1015.55 1015.71 1015.83 1015.99 1016.15 1016.27 1016.39 1016.47 1016.55 1016.67 1016.79 1016.87 1016.95 1017.03 1017.11 1017.23 1017.35 1017.47 1017.59 1017.67 1017.75 1017.83 1017.87 1017.95 1018.03 1018.11 1018.11 1018.19 1018.27 1018.35 1018.39 1018.47 1018.55 1018.59
1009.39 1009.63 1009.83 1010.03 1010.27 1010.55 1010.79 1010.99 1011.19 1011.39 1011.55 1011.79 1011.95 1012.07 1012.19 1012.39 1012.59 1012.75 1012.91 1013.11 1013.31 1013.51 1013.67 1013.83 1013.95 1014.11 1014.31 1014.51 1014.63 1014.75 1014.95 1015.11 1015.27 1015.39 1015.55 1015.71 1015.83 1015.95 1016.11 1016.23 1016.27 1016.39 1016.43 1016.55 1016.67 1016.79 1016.91 1016.99 1017.07 1017.11 1017.23 1017.31 1017.43 1017.55 1017.67 1017.75 1017.83 1017.95 1017.99 1018.11 1018.15 1018.23 1018.27 1018.27 1018.35 1018.39 1018.47 1018.51 1018.55
1009.51 1009.71 1009.91 1010.15 1010.39 1010.63 1010.83 1011.03 1011.23 1011.39 1011.59 1011.79 1011.99 1012.15 1012.35 1012.55 1012.75 1012.95 1013.11 1013.27 1013.39 1013.55 1013.67 1013.83 1013.99 1014.27 1014.55 1014.79 1014.95 1015.07 1015.19 1015.31 1015.43 1015.55 1015.67 1015.83 1015.91 1016.03 1016.19 1016.35 1016.43 1016.51 1016.55 1016.67 1016.75 1016.87 1016.99 1017.11 1017.15 1017.19 1017.27 1017.31 1017.43 1017.55 1017.67 1017.79 1017.83 1017.95 1018.07 1018.11 1018.23 1018.27 1018.31 1018.39 1018.39 1018.43 1018.47 1018.51 1018.51
1009.59 1009.83 1010.03 1010.27 1010.47 1010.67 1010.83 1011.11 1011.27 1011.47 1011.67 1011.87 1012.11 1012.31 1012.51 1012.71 1012.91 1013.11 1013.27 1013.39 1013.55 1013.67 1013.83 1013.95 1014.19 1014.47 1014.75 1014.99 1015.11 1015.27 1015.35 1015.39 1015.55 1015.67 1015.79 1015.87 1015.99 1016.11 1016.27 1016.43 1016.55 1016.63 1016.67 1016.71 1016.83 1016.95 1017.03 1017.11 1017.19 1017.23 1017.27 1017.39 1017.51 1017.59 1017.67 1017.83 1017.87 1017.95 1018.11 1018.19 1018.27 1018.39 1018.47 1018.55 1018.55 1018.55 1018.55 1018.55 1018.55
1009.67 1009.91 1010.11 1010.35 1010.51 1010.71 1010.95 1011.15 1011.43 1011.67 1011.91 1012.11 1012.27 1012.47 1012.67 1012.83 1013.03 1013.27 1013.43 1013.59 1013.67 1013.83 1014.03 1014.27 1014.51 1014.71 1014.95 1015.11 1015.23 1015.35 1015.43 1015.51 1015.63 1015.71 1015.83 1015.95 1016.07 1016.15 1016.27 1016.47 1016.55 1016.59 1016.67 1016.71 1016.83 1016.99 1017.07 1017.11 1017.23 1017.27 1017.39 1017.51 1017.63 1017.71 1017.83 1017.87 1017.95 1018.03 1018.15 1018.27 1018.39 1018.55 1018.63 1018.67 1018.67 1018.67 1018.67 1018.59 1018.55
1009.87 1010.07 1010.27 1010.47 1010.67 1010.87 1011.11 1011.43 1011.71 1011.95 1012.19 1012.35 1012.51 1012.67 1012.87 1013.07 1013.27 1013.43 1013.63 1013.83 1013.91 1014.11 1014.27 1014.55 1014.75 1014.95 1015.11 1015.19 1015.27 1015.39 1015.47 1015.55 1015.67 1015.75 1015.83 1015.95 1016.07 1016.19 1016.31 1016.47 1016.59 1016.67 1016.75 1016.83 1016.95 1017.07 1017.15 1017.23 1017.27 1017.39 1017.47 1017.59 1017.67 1017.83 1017.91 1017.95 1018.11 1018.23 1018.31 1018.39 1018.43 1018.55 1018.67 1018.67 1018.67 1018.67 1018.67 1018.63 1018.59
1010.15 1010.39 1010.63 1010.83 1011.03 1011.27 1011.55 1011.79 1011.99 1012.19 1012.39 1012.59 1012.75 1012.99 1013.15 1013.31 1013.51 1013.67 1013.87 1014.07 1014.27 1014.39 1014.59 1014.75 1014.91 1015.03 1015.15 1015.27 1015.35 1015.43 1015.55 1015.63 1015.71 1015.83 1015.95 1016.11 1016.23 1016.39 1016.47 1016.55 1016.71 1016.87 1016.99 1017.11 1017.19 1017.27 1017.31 1017.39 1017.39 1017.51 1017.59 1017.71 1017.83 1017.95 1018.03 1018.07 1018.19 1018.27 1018.35 1018.39 1018.43 1018.55 1018.59 1018.59 1018.63 1018.67 1018.67 1018.67 1018.67
1010.59 1010.83 1011.03 1011.27 1011.47 1011.67 1011.87 1012.07 1012.27 1012.43 1012.63 1012.83 1013.07 1013.27 1013.47 1013.67 1013.83 1013.99 1014.19 1014.39 1014.55 1014.67 1014.83 1014.95 1015.11 1015.19 1015.27 1015.39 1015.47 1015.59 1015.67 1015.83 1015.87 1015.99 1016.11 1016.27 1016.43 1016.59 1016.71 1016.83 1017.03 1017.23 1017.35 1017.39 1017.51 1017.55 1017.59 1017.63 1017.71 1017.83 1017.95 1018.03 1018.11 1018.15 1018.19 1018.23 1018.27 1018.31 1018.39 1018.47 1018.55 1018.59 1018.63 1018.67 1018.67 1018.71 1018.75 1018.75 1018.75
1010.95 1011.19 1011.39 1011.59 1011.79 1011.95 1012.11 1012.27 1012.47 1012.67 1012.87 1013.11 1013.35 1013.55 1013.75 1013.91 1014.11 1014.27 1014.47 1014.59 1014.75 1014.83 1014.99 1015.11 1015.23 1015.31 1015.39 1015.51 1015.67 1015.79 1015.87 1015.99 1016.11 1016.27 1016.39 1016.51 1016.63 1016.79 1016.99 1017.11 1017.31 1017.51 1017.67 1017.67 1017.83 1017.91 1017.95 1017.99 1018.11 1018.27 1018.31 1018.31 1018.35 1018.35 1018.35 1018.39 1018.47 1018.55 1018.63 1018.63 1018.67 1018.67 1018.71 1018.79 1018.83 1018.83 1018.87 1018.83 1018.87
1011.15 1011.39 1011.63 1011.83 1011.99 1012.15 1012.31 1012.47 1012.67 1012.91 1013.11 1013.31 1013.55 1013.75 1013.95 1014.11 1014.27 1014.39 1014.55 1014.67 1014.83 1014.99 1015.11 1015.27 1015.39 1015.51 1015.63 1015.75 1015.83 1015.95 1016.07 1016.19 1016.31 1016.47 1016.59 1016.67 1016.83 1016.99 1017.11 1017.27 1017.47 1017.67 1017.83 1017.91 1017.99 1018.07 1018.11 1018.19 1018.31 1018.39 1018.43 1018.43 1018.47 1018.51 1018.55 1018.67 1018.83 1018.83 1018.79 1018.71 1018.71 1018.75 1018.83 1018.87 1018.95 1018.99 1018.99 1019.03 1018.99
1011.35 1011.55 1011.75 1011.95 1012.19 1012.35 1012.51 1012.67 1012.87 1013.11 1013.31 1013.55 1013.71 1013.91 1014.11 1014.27 1014.39 1014.51 1014.67 1014.83 1014.99 1015.15 1015.31 1015.43 1015.63 1015.79 1015.91 1016.03 1016.11 1016.19 1016.27 1016.35 1016.47 1016.59 1016.71 1016.87 1016.99 1017.11 1017.23 1017.39 1017.67 1017.91 1018.03 1017.95 1017.99 1018.07 1018.11 1018.19 1018.27 1018.31 1018.35 1018.39 1018.51 1018.67 1018.83 1018.95 1018.95 1018.87 1018.83 1018.83 1018.83 1018.83 1018.87 1018.91 1018.99 1019.03 1019.07 1019.11 1019.11
1011.51 1011.71 1011.95 1012.15 1012.35 1012.55 1012.71 1012.87 1013.07 1013.27 1013.47 1013.67 1013.83 1014.03 1014.19 1014.35 1014.51 1014.59 1014.75 1014.99 1015.19 1015.35 1015.51 1015.67 1015.83 1016.03 1016.15 1016.27 1016.35 1016.43 1016.55 1016.63 1016.75 1016.83 1016.91 1016.99 1017.11 1017.23 1017.35 1017.55 1017.75 1018.11 1018.23 1018.11 1018.11 1018.19 1018.23 1018.27 1018.27 1018.31 1018.39 1018.51 1018.67 1018.83 1018.99 1019.07 1019.07 1019.03 1018.99 1018.99 1018.99 1018.99 1018.99 1018.99 1019.03 1019.07 1019.11 1019.15 1019.19
1011.67 1011.87 1012.11 1012.27 1012.47 1012.67 1012.83 1013.03 1013.19 1013.39 1013.59 1013.79 1013.95 1014.15 1014.35 1014.55 1014.67 1014.83 1014.99 1015.19 1015.39 1015.59 1015.75 1015.91 1016.11 1016.27 1016.39 1016.51 1016.59 1016.67 1016.75 1016.87 1016.99 1017.03 1017.11 1017.19 1017.31 1017.43 1017.55 1017.67 1017.87 1018.19 1018.39 1018.27 1018.31 1018.39 1018.43 1018.51 1018.55 1018.55 1018.59 1018.71 1018.87 1019.03 1019.11 1019.11 1019.23 1019.23 1019.23 1019.19 1019.15 1019.15 1019.15 1019.15 1019.15 1019.15 1019.15 1019.15 1019.19
1011.79 1011.99 1012.23 1012.39 1012.55 1012.79 1012.99 1013.15 1013.35 1013.55 1013.75 1013.95 1014.11 1014.31 1014.51 1014.67 1014.83 1014.99 1015.19 1015.39 1015.59 1015.79 1015.95 1016.11 1016.35 1016.51 1016.63 1016.71 1016.83 1016.91 1016.99 1017.07 1017.15 1017.27 1017.35 1017.39 1017.51 1017.59 1017.67 1017.83 1017.99 1018.15 1018.27 1018.35 1018.39 1018.55 1018.63 1018.71 1018.83 1018.87 1018.95 1018.99 1019.11 1019.19 1019.27 1019.27 1019.27 1019.31 1019.31 1019.31 1019.31 1019.35 1019.35 1019.35 1019.35 1019.31 1019.27 1019.27 1019.27
1011.87 1012.07 1012.27 1012.51 1012.71 1012.95 1013.15 1013.35 1013.55 1013.75 1013.95 1014.15 1014.35 1014.55 1014.67 1014.87 1015.03 1015.23 1015.39 1015.59 1015.79 1015.95 1016.11 1016.35 1016.55 1016.67 1016.79 1016.95 1017.03 1017.11 1017.19 1017.27 1017.39 1017.47 1017.55 1017.63 1017.67 1017.75 1017.87 1017.99 1018.15 1018.31 1018.39 1018.51 1018.59 1018.75 1018.87 1018.99 1019.07 1019.11 1019.19 1019.19 1019.23 1019.31 1019.39 1019.39 1019.39 1019.39 1019.43 1019.47 1019.55 1019.55 1019.55 1019.59 1019.59 1019.55 1019.47 1019.43 1019.35
1011.95 1012.15 1012.35 1012.59 1012.83 1013.11 1013.31 1013.55 1013.75 1013.95 1014.15 1014.39 1014.55 1014.71 1014.87 1015.07 1015.27 1015.39 1015.59 1015.79 1015.95 1016.15 1016.35 1016.55 1016.67 1016.83 1016.95 1017.11 1017.19 1017.27 1017.39 1017.47 1017.55 1017.63 1017.71 1017.79 1017.83 1017.95 1018.07 1018.19 1018.39 1018.55 1018.63 1018.71 1018.83 1018.99 1019.11 1019.23 1019.27 1019.35 1019.39 1019.43 1019.47 1019.55 1019.59 1019.67 1019.67 1019.67 1019.67 1019.67 1019.71 1019.75 1019.75 1019.79 1019.75 1019.71 1019.67 1019.63 1019.55
1012.11 1012.27 1012.51 1012.75 1012.99 1013.27 1013.55 1013.75 1013.95 1014.15 1014.35 1014.55 1014.71 1014.91 1015.07 1015.27 1015.51 1015.67 1015.87 1016.07 1016.27 1016.43 1016.63 1016.71 1016.83 1016.99 1017.15 1017.27 1017.35 1017.47 1017.55 1017.67 1017.75 1017.83 1017.91 1017.95 1018.07 1018.23 1018.39 1018.51 1018.67 1018.87 1018.99 1019.03 1019.15 1019.27 1019.35 1019.39 1019.47 1019.55 1019.59 1019.63 1019.67 1019.75 1019.83 1019.87 1019.87 1019.91 1019.95 1019.95 1019.95 1019.95 1019.95 1019.95 1019.95 1019.95 1019.91 1019.83 1019.79
1012.27 1012.43 1012.67 1012.91 1013.19 1013.51 1013.75 1013.95 1014.19 1014.39 1014.59 1014.79 1014.99 1015.11 1015.35 1015.59 1015.83 1016.03 1016.19 1016.35 1016.55 1016.67 1016.83 1016.91 1017.07 1017.19 1017.35 1017.47 1017.55 1017.67 1017.83 1017.87 1017.95 1018.07 1018.11 1018.23 1018.35 1018.51 1018.67 1018.83 1019.07 1019.27 1019.39 1019.39 1019.43 1019.51 1019.55 1019.63 1019.71 1019.75 1019.79 1019.83 1019.87 1019.95 1020.03 1020.11 1020.15 1020.19 1020.27 1020.31 1020.31 1020.27 1020.23 1020.19 1020.15 1020.15 1020.11 1020.03 1019.99
1012.39 1012.63 1012.83 1013.11 1013.39 1013.71 1013.95 1014.23 1014.43 1014.63 1014.83 1015.03 1015.23 1015.39 1015.67 1015.87 1016.11 1016.27 1016.43 1016.59 1016.71 1016.83 1016.99 1017.11 1017.27 1017.39 1017.51 1017.67 1017.79 1017.91 1018.03 1018.11 1018.23 1018.31 1018.39 1018.51 1018.63 1018.79 1018.95 1019.15 1019.39 1019.55 1019.67 1019.67 1019.71 1019.75 1019.83 1019.87 1019.91 1019.95 1019.99 1020.03 1020.07 1020.11 1020.19 1020.27 1020.35 1020.39 1020.51 1020.55 1020.55 1020.55 1020.55 1020.47 1020.39 1020.39 1020.31 1020.27 1020.23
1012.59 1012.83 1013.11 1013.35 1013.63 1013.95 1014.23 1014.43 1014.67 1014.83 1015.03 1015.27 1015.51 1015.71 1015.95 1016.11 1016.35 1016.55 1016.67 1016.83 1016.99 1017.11 1017.23 1017.35 1017.47 1017.63 1017.79 1017.87 1017.99 1018.11 1018.23 1018.35 1018.47 1018.55 1018.67 1018.83 1018.91 1019.03 1019.23 1019.43 1019.67 1019.87 1019.95 1019.95 1019.95 1020.03 1020.11 1020.11 1020.19 1020.23 1020.27 1020.27 1020.27 1020.31 1020.39 1020.43 1020.51 1020.59 1020.67 1020.71 1020.75 1020.79 1020.79 1020.71 1020.67 1020.63 1020.55 1020.47 1020.39
1012.79 1012.99 1013.27 1013.55 1013.83 1014.11 1014.39 1014.63 1014.83 1015.03 1015.27 1015.47 1015.79 1016.03 1016.27 1016.39 1016.59 1016.79 1016.99 1017.15 1017.27 1017.39 1017.51 1017.67 1017.79 1017.91 1018.03 1018.11 1018.27 1018.31 1018.39 1018.55 1018.67 1018.83 1018.99 1019.11 1019.23 1019.35 1019.55 1019.75 1019.99 1020.19 1020.27 1020.27 1020.27 1020.31 1020.35 1020.39 1020.43 1020.43 1020.43 1020.47 1020.51 1020.55 1020.63 1020.67 1020.67 1020.75 1020.83 1020.87 1020.91 1020.95 1020.99 1020.95 1020.91 1020.83 1020.75 1020.67 1020.59
1012.95 1013.15 1013.43 1013.75 1014.03 1014.31 1014.59 1014.83 1015.03 1015.27 1015.47 1015.71 1016.03 1016.27 1016.51 1016.67 1016.87 1017.07 1017.27 1017.35 1017.43 1017.55 1017.71 1017.91 1018.03 1018.15 1018.27 1018.39 1018.51 1018.59 1018.67 1018.79 1018.91 1019.07 1019.23 1019.35 1019.47 1019.63 1019.83 1020.07 1020.27 1020.43 1020.51 1020.55 1020.55 1020.59 1020.63 1020.67 1020.67 1020.67 1020.67 1020.67 1020.75 1020.79 1020.79 1020.83 1020.87 1020.91 1020.99 1020.99 1021.03 1021.07 1021.11 1021.11 1021.11 1021.07 1020.99 1020.87 1020.75
1013.19 1013.35 1013.59 1013.91 1014.23 1014.51 1014.75 1014.99 1015.23 1015.47 1015.75 1015.99 1016.27 1016.47 1016.67 1016.91 1017.11 1017.31 1017.43 1017.51 1017.59 1017.79 1017.95 1018.11 1018.27 1018.39 1018.55 1018.67 1018.75 1018.87 1018.99 1019.03 1019.11 1019.27 1019.39 1019.55 1019.67 1019.83 1020.03 1020.27 1020.51 1020.67 1020.79 1020.83 1020.83 1020.83 1020.91 1020.91 1020.91 1020.87 1020.83 1020.83 1020.91 1020.91 1020.95 1020.99 1020.99 1021.07 1021.11 1021.11 1021.19 1021.23 1021.23 1021.23 1021.27 1021.27 1021.19 1021.11 1020.99
1013.43 1013.59 1013.83 1014.07 1014.39 1014.67 1014.99 1015.23 1015.43 1015.67 1015.95 1016.27 1016.51 1016.71 1016.91 1017.11 1017.31 1017.51 1017.63 1017.71 1017.83 1017.99 1018.23 1018.39 1018.55 1018.67 1018.83 1018.95 1019.03 1019.15 1019.27 1019.31 1019.39 1019.47 1019.59 1019.75 1019.91 1020.11 1020.27 1020.47 1020.71 1020.91 1021.03 1021.11 1021.11 1021.11 1021.11 1021.11 1021.11 1021.11 1021.07 1021.03 1021.03 1021.03 1021.07 1021.11 1021.11 1021.15 1021.19 1021.27 1021.27 1021.35 1021.39 1021.39 1021.39 1021.39 1021.39 1021.35 1021.31
1013.67 1013.83 1014.03 1014.27 1014.59 1014.87 1015.19 1015.39 1015.67 1015.95 1016.23 1016.47 1016.75 1016.99 1017.15 1017.27 1017.51 1017.71 1017.87 1017.99 1018.11 1018.27 1018.47 1018.63 1018.83 1018.99 1019.11 1019.23 1019.27 1019.39 1019.55 1019.63 1019.67 1019.71 1019.83 1019.95 1020.15 1020.31 1020.47 1020.63 1020.87 1021.11 1021.27 1021.31 1021.35 1021.35 1021.35 1021.35 1021.35 1021.31 1021.27 1021.19 1021.19 1021.19 1021.23 1021.27 1021.27 1021.27 1021.31 1021.35 1021.39 1021.43 1021.51 1021.51 1021.47 1021.47 1021.47 1021.51 1021.51
1013.91 1014.11 1014.31 1014.55 1014.83 1015.11 1015.39 1015.67 1015.95 1016.27 1016.51 1016.67 1016.95 1017.15 1017.39 1017.55 1017.75 1017.95 1018.15 1018.31 1018.43 1018.55 1018.71 1018.91 1019.11 1019.27 1019.39 1019.43 1019.55 1019.63 1019.79 1019.91 1019.99 1020.03 1020.11 1020.23 1020.39 1020.51 1020.63 1020.79 1020.99 1021.23 1021.39 1021.51 1021.55 1021.55 1021.55 1021.55 1021.55 1021.51 1021.43 1021.35 1021.35 1021.35 1021.39 1021.39 1021.43 1021.47 1021.47 1021.47 1021.55 1021.55 1021.59 1021.67 1021.67 1021.63 1021.63 1021.59 1021.59
1014.15 1014.39 1014.63 1014.87 1015.11 1015.39 1015.63 1015.91 1016.23 1016.51 1016.75 1016.99 1017.19 1017.39 1017.63 1017.83 1017.99 1018.15 1018.35 1018.51 1018.67 1018.83 1018.99 1019.15 1019.35 1019.47 1019.55 1019.67 1019.83 1019.91 1020.03 1020.19 1020.27 1020.35 1020.39 1020.47 1020.55 1020.63 1020.75 1020.87 1021.07 1021.27 1021.47 1021.59 1021.67 1021.67 1021.71 1021.71 1021.71 1021.67 1021.59 1021.55 1021.55 1021.55 1021.51 1021.55 1021.55 1021.63 1021.63 1021.67 1021.67 1021.67 1021.71 1021.79 1021.83 1021.83 1021.79 1021.75 1021.75
Wind_Speed
12 11 9 9 8 8 7 7 6 6 6 7 7 7 6 6 6 6 5 5 5 5 5 5 5 5 6 7 9 9 9 9 10 10 9 9 9 9 9 8 8 8 7 7 6 5 5 5 4 4 4 4 5 5 5 5 5 5 6 6 5 5 6 7 7 6 6 6 5
13 12 11 9 8 8 7 7 6 6 6 6 6 6 6 6 6 6 6 6 5 5 5 4 5 6 7 8 8 8 9 9 10 10 9 10 9 9 9 9 9 9 8 8 7 6 5 6 6 5 5 5 5 6 6 6 6 6 6 7 5 4 4 5 5 5 5 5 5
13 12 11 10 10 9 8 7 7 8 8 7 6 6 6 6 5 5 5 5 5 5 5 4 5 6 7 7 7 7 8 8 9 9 9 9 9 9 9 8 8 8 8 8 8 7 7 7 6 5 4 4 5 5 5 4 3 3 4 5 3 2 2 3 3 3 3 4 5
13 13 12 11 12 11 10 8 9 9 9 7 7 6 6 6 5 5 5 6 6 6 5 5 5 5 6 6 6 6 7 7 8 8 8 8 8 8 8 8 8 8 8 7 8 8 7 6 4 4 3 3 2 1 0 1 1 0 1 2 1 1 2 2 2 3 3 3 4
13 12 11 11 13 12 11 9 10 10 9 7 7 6 6 6 5 5 5 6 6 6 6 6 5 4 5 5 6 6 6 6 6 6 6 7 7 7 7 7 7 7 7 6 7 6 5 5 3 3 3 3 2 1 1 1 1 1 0 0 0 1 2 2 2 2 2 3 3
13 12 12 11 13 12 10 9 11 10 9 7 7 7 7 6 6 6 6 6 6 6 6 6 5 4 5 5 6 6 5 5 5 5 5 6 6 6 7 7 7 7 6 6 6 6 6 5 4 3 3 3 2 2 2 3 2 2 2 1 1 2 2 3 3 3 3 3 4
13 13 12 12 13 12 10 10 10 10 9 8 9 9 9 8 7 7 7 6 5 5 5 5 5 5 5 5 5 5 5 5 5 5 6 6 5 6 6 6 6 6 5 5 5 5 5 4 3 2 2 2 2 2 3 3 3 3 2 2 2 2 3 4 3 3 3 4 5
13 13 12 12 12 12 11 11 10 10 9 8 9 10 11 10 9 8 7 6 5 5 4 4 5 5 5 6 5 5 5 5 5 5 5 5 4 4 4 4 3 2 2 1 2 2 2 1 2 2 2 2 2 2 2 3 3 3 3 3 3 3 3 3 3 3 3 5 5
12 12 12 11 12 12 11 11 11 10 9 9 10 10 11 9 9 8 7 5 5 5 5 5 5 6 6 6 6 6 5 5 4 4 4 4 4 4 4 3 3 3 3 3 3 3 4 3 3 2 2 2 2 2 2 3 3 3 3 3 3 3 3 3 3 3 3 4 6
11 11 11 11 11 11 11 11 11 11 10 10 10 10 9 7 7 7 6 5 5 5 5 5 6 6 7 6 6 5 5 4 4 4 5 5 5 5 4 4 4 4 4 4 4 4 4 3 3 2 2 2 2 3 3 3 3 3 3 2 2 3 3 3 3 3 4 5 6
12 11 11 10 11 11 10 10 10 10 9 8 9 8 7 7 7 7 6 5 5 6 6 6 6 6 6 5 5 5 4 4 5 5 5 5 5 4 4 4 5 5 5 5 4 4 3 3 3 3 3 3 3 3 3 3 3 3 3 3 3 3 4 3 3 3 4 5 6
12 11 11 10 11 11 10 10 9 8 8 7 8 8 7 6 7 7 6 5 6 6 6 5 5 5 5 4 4 4 4 5 5 4 4 4 4 4 5 5 5 5 6 5 5 4 3 3 3 4 4 4 3 3 3 4 3 3 3 3 3 4 4 3 3 3 3 4 5
12 11 11 11 11 11 10 9 8 7 7 7 7 7 7 6 7 6 6 6 6 5 5 5 5 4 4 4 4 4 4 3 3 2 3 3 4 5 6 6 6 6 6 5 5 4 4 4 4 4 4 4 3 3 3 3 3 3 3 3 3 3 3 3 3 3 3 4 5
12 11 11 11 11 11 10 9 7 7 7 7 7 7 7 6 6 6 6 6 5 5 5 5 4 3 3 3 3 3 3 3 3 4 5 5 6 6 6 6 6 6 5 5 5 4 4 4 4 4 4 3 3 2 2 3 2 2 2 3 3 3 3 3 3 3 3 4 5
12 12 11 11 11 10 9 8 7 7 7 7 7 6 6 6 6 5 5 5 5 5 5 5 4 3 3 3 4 4 4 5 5 6 6 6 6 6 6 6 6 5 5 4 4 4 3 3 3 3 3 3 2 2 2 2 2 2 2 2 2 2 2 2 2 3 3 4 4
12 11 11 11 11 10 8 7 6 6 7 7 6 6 6 5 5 5 5 5 5 5 5 5 5 5 5 6 6 6 6 6 7 7 7 6 6 6 5 5 5 5 4 4 4 3 3 2 2 2 3 3 3 2 2 2 1 1 1 2 2 2 2 3 2 2 3 3 4
11 11 11 11 10 10 9 8 6 6 7 7 7 6 5 5 5 5 5 5 5 5 5 6 6 6 6 6 6 6 6 6 6 6 6 6 6 6 5 5 4 4 4 4 4 3 3 3 2 2 2 2 2 2 2 2 1 1 1 1 2 2 2 3 3 3 3 4 4
11 11 11 11 10 10 9 8 7 7 7 7 7 6 6 6 6 5 5 6 6 6 7 7 7 7 7 7 6 6 6 6 6 6 6 6 6 6 5 5 5 4 4 4 4 4 4 3 3 2 2 2 2 2 1 1 1 0 0 1 2 2 2 3 3 3 4 4 4
11 11 10 10 10 10 9 9 8 8 7 7 7 7 7 7 7 7 6 6 7 8 8 8 8 8 7 7 7 6 6 6 6 6 6 6 6 6 6 6 5 5 5 5 4 4 4 3 3 3 2 2 2 1 1 1 1 1 2 2 2 2 2 2 3 3 4 4 4
10 10 9 9 9 9 9 9 9 8 8 8 8 8 8 8 8 8 8 8 8 9 9 9 8 8 8 8 8 7 7 6 7 7 7 6 6 6 7 7 6 6 5 5 5 4 3 3 3 3 2 2 2 2 2 2 2 2 2 2 2 2 2 2 3 3 4 4 5
9 9 9 9 9 9 9 9 9 9 9 9 9 9 9 9 9 9 9 9 9 10 10 9 9 8 8 8 8 8 7 6 7 7 7 7 7 7 7 7 7 6 5 5 5 5 4 4 4 4 4 4 4 4 3 3 3 2 2 2 3 3 3 3 3 3 4 4 5
9 9 9 9 9 10 10 10 10 10 10 10 10 10 10 10 10 10 10 10 10 10 10 9 9 9 9 9 8 8 8 7 7 8 8 8 8 8 8 8 8 7 6 6 6 5 6 6 7 6 6 5 5 5 4 4 4 4 4 4 4 4 4 4 5 5 5 5 5
10 9 9 9 10 10 10 10 10 10 11 11 10 10 10 10 10 10 10 10 10 10 10 9 9 9 9 9 9 9 9 9 9 9 9 9 9 9 9 9 8 7 6 5 5 5 5 6 6 6 5 5 5 5 6 6 6 5 5 5 5 5 5 6 6 6 6 6 5
10 10 9 9 10 10 11 11 11 11 11 11 11 11 11 11 11 11 11 11 11 10 10 9 9 10 10 10 9 10 10 10 10 10 10 10 10 10 10 9 9 7 6 5 5 5 5 5 4 4 4 5 6 6 7 7 5 4 4 5 6 6 6 7 7 6 6 7 6
11 11 10 10 10 11 11 11 11 11 11 11 11 11 11 11 11 11 12 12 12 12 11 11 10 10 9 9 9 10 10 11 11 11 10 10 10 9 9 9 8 6 4 6 9 10 9 7 6 5 5 6 7 8 7 6 5 5 6 6 6 6 7 7 7 7 7 7 6
11 11 11 11 11 11 11 12 12 12 12 12 12 12 12 11 11 12 13 13 12 12 12 12 11 10 9 9 10 10 10 10 10 10 10 10 10 10 9 8 7 6 5 8 11 12 12 11 9 8 7 7 8 7 7 6 7 7 8 7 7 7 7 7 7 7 7 6 6
12 12 12 11 12 12 12 12 12 12 12 12 13 12 12 11 11 12 13 13 13 12 12 11 10 10 9 9 10 10 10 9 10 10 10 10 10 10 9 8 7 6 6 9 12 13 13 13 12 11 10 8 8 7 6 6 7 7 7 7 7 7 7 7 7 7 7 6 6
12 12 12 13 13 13 13 13 13 13 13 13 13 13 13 13 13 13 13 13 12 11 10 10 9 8 8 8 10 10 11 10 10 10 10 10 11 10 9 8 8 8 9 11 13 14 14 14 13 12 11 9 7 6 6 6 6 6 6 7 7 7 8 7 7 7 7 7 6
13 13 14 14 14 13 13 13 13 13 13 14 13 13 13 13 13 13 13 12 12 10 9 8 7 7 7 9 10 10 11 11 10 10 10 11 11 11 10 10 9 10 11 13 14 15 15 15 14 13 11 9 7 6 5 5 6 6 6 6 7 7 7 7 7 7 7 7 7
14 14 14 15 15 14 14 14 14 14 13 13 13 14 14 13 13 13 13 12 11 10 9 8 8 9 9 10 10 10 10 10 10 10 11 12 12 12 11 11 10 11 13 15 16 16 15 15 14 14 13 11 9 7 6 6 6 6 7 7 7 8 8 8 8 8 8 7 7
14 15 15 15 15 15 14 14 14 14 13 13 13 14 14 14 13 13 12 12 11 11 11 11 11 12 11 10 10 10 10 10 10 11 11 12 13 13 13 13 13 13 14 16 16 16 16 15 15 14 14 12 10 8 7 7 7 7 7 7 8 8 8 8 8 9 9 8 8
15 16 16 16 16 15 15 14 14 14 14 14 14 14 14 14 13 13 12 12 12 12 12 13 13 13 12 12 12 12 11 11 11 11 11 12 13 14 14 14 13 14 15 17 17 16 16 16 16 15 14 13 11 9 9 8 8 8 8 9 9 9 9 8 8 8 9 9 8
16 16 16 16 16 15 15 14 14 14 14 14 14 14 14 13 13 12 12 11 12 12 13 13 13 13 13 13 13 12 12 12 12 13 13 13 14 14 14 13 12 13 15 17 17 17 17 16 16 15 14 13 10 9 9 9 8 8 8 8 9 9 9 9 8 8 9 9 8
16 16 16 16 16 15 15 14 14 14 15 15 15 14 14 13 13 12 12 11 11 11 12 12 12 12 12 12 12 12 12 12 12 13 14 14 14 14 14 12 11 13 15 17 17 17 16 16 15 14 13 12 10 9 9 9 8 8 8 8 8 8 8 8 8 8 8 9 8
16 17 17 16 16 15 15 15 15 15 15 15 15 14 14 13 13 12 12 11 11 12 12 12 12 12 12 12 12 13 13 13 13 14 14 14 15 15 15 14 13 14 16 17 16 16 15 15 14 13 12 10 8 8 8 9 8 8 8 8 8 8 8 8 8 8 8 8 8
16 17 17 16 16 16 15 15 15 15 15 15 15 14 14 13 13 12 12 12 13 13 13 12 12 12 12 12 12 12 13 13 14 14 14 15 15 16 16 15 15 15 16 16 16 15 15 14 13 12 10 8 7 6 7 7 7 7 8 8 8 8 8 8 8 8 8 9 9
16 16 17 17 16 16 15 15 15 15 15 15 15 14 14 13 13 12 12 12 13 13 13 13 13 13 13 12 12 12 12 13 13 14 14 14 15 15 15 15 15 15 15 16 16 15 14 13 12 11 9 7 6 6 6 5 5 6 7 7 7 7 7 7 7 8 9 10 10
15 16 16 17 16 16 15 15 16 16 16 15 14 14 13 13 12 11 11 11 12 13 13 13 13 13 13 13 13 13 13 13 13 14 14 14 14 15 15 15 14 14 14 15 15 15 14 13 12 10 8 6 6 5 5 5 5 5 5 6 6 7 6 6 6 7 8 11 12
15 15 16 16 16 16 16 16 16 16 15 15 14 13 13 12 11 11 11 11 12 13 13 13 13 13 13 13 13 13 13 13 13 13 14 14 14 14 14 14 14 13 14 15 15 15 14 13 12 11 9 7 6 5 5 5 5 5 5 5 5 6 6 6 5 6 7 10 13
15 15 16 16 16 16 16 16 16 15 14 14 14 13 12 12 11 11 11 11 12 13 13 13 14 13 13 13 13 13 14 13 13 13 13 13 14 14 14 14 13 13 13 14 14 14 14 13 12 10 8 6 5 5 4 5 5 5 5 5 5 5 5 6 5 6 6 8 11
14 15 16 16 16 16 16 16 15 14 14 13 13 13 12 12 12 12 12 11 12 12 12 12 13 13 13 12 12 13 14 14 13 13 13 13 13 13 13 13 13 13 13 13 13 14 13 13 12 11 9 6 5 5 4 4 5 6 6 6 5 5 5 5 5 5 6 7 8
Wind_Direction
182 182 180 178 175 176 178 178 178 177 177 178 180 179 179 180 181 182 184 188 191 193 194 197 198 195 192 190 193 196 198 200 200 200 202 204 206 207 207 207 207 206 205 204 196 193 196 202 208 213 218 222 225 228 229 226 222 221 221 222 225 228 230 234 236 233 228 226 232
182 180 178 173 172 173 174 174 175 175 177 179 180 179 179 181 182 183 185 189 191 192 192 193 196 194 191 188 191 195 198 199 200 200 202 205 208 210 210 210 209 208 207 204 198 197 199 202 209 217 224 228 226 225 225 224 222 221 223 224 225 224 226 233 237 236 231 229 232
181 179 176 172 172 173 173 173 175 176 177 178 179 178 178 181 184 185 186 189 189 190 190 191 193 192 191 187 188 192 198 200 200 201 202 205 207 210 212 214 213 212 211 209 207 207 208 206 206 211 218 226 230 232 234 239 239 239 238 236 228 217 214 228 234 234 232 232 233
180 178 176 174 175 175 175 175 176 176 176 176 178 179 179 181 185 186 186 188 189 191 192 192 190 189 187 184 183 188 196 200 200 201 203 205 206 209 212 216 216 217 218 218 218 218 215 207 199 197 202 209 215 214 154 57 57 20 277 271 256 225 218 228 231 228 227 230 235
180 178 176 175 177 177 177 177 176 176 175 174 176 178 181 182 185 186 187 188 190 191 192 189 184 181 179 176 178 184 192 198 198 200 204 206 206 207 209 213 216 218 220 221 223 221 213 196 186 189 198 201 198 192 163 115 131 156 195 323 254 233 230 230 231 227 225 227 232
178 177 176 176 177 178 178 178 177 176 175 174 177 180 182 183 185 186 187 190 189 188 186 182 177 171 169 170 174 180 187 193 195 197 202 205 207 207 207 211 216 217 215 213 214 213 208 196 193 194 194 187 185 176 160 143 157 175 188 195 205 217 227 235 230 225 225 230 236
177 176 176 176 177 178 178 177 175 175 174 176 181 184 186 186 186 187 187 187 181 176 173 173 173 170 167 169 173 177 182 189 193 197 200 205 207 207 207 207 214 216 214 208 208 211 213 211 206 194 175 151 152 161 165 160 166 179 196 207 206 209 218 229 231 230 232 239 243
177 176 176 176 177 177 176 175 173 173 174 178 185 188 189 189 186 184 183 181 170 163 164 170 175 173 170 172 171 174 180 187 192 197 201 203 200 198 196 193 194 191 184 177 176 165 146 110 89 85 88 93 105 133 154 159 172 190 207 216 209 205 208 219 224 230 237 245 250
175 174 174 174 175 175 174 173 173 174 176 182 187 189 189 186 181 177 176 175 166 163 165 172 174 173 173 173 172 173 176 180 186 190 192 193 190 183 173 161 147 132 117 101 109 110 105 91 86 88 93 98 108 122 138 156 179 200 216 227 222 216 216 223 228 234 242 250 255
171 170 170 170 172 171 170 170 172 175 178 182 186 185 182 176 171 171 172 173 163 165 170 173 176 176 176 175 172 168 166 169 182 189 192 192 188 180 169 156 149 142 133 119 114 112 111 105 108 112 114 110 122 135 150 169 188 205 218 231 239 240 239 239 239 241 247 252 257
166 166 166 166 167 166 166 168 172 174 176 179 179 175 168 166 167 168 168 170 167 171 176 175 175 174 172 168 163 161 163 175 190 196 196 191 181 170 158 149 145 140 132 121 115 113 115 118 126 130 129 124 136 150 166 184 198 211 223 234 246 253 254 249 243 244 249 255 259
163 163 163 162 162 162 164 166 168 168 168 169 169 165 162 164 168 167 167 174 176 176 172 163 160 157 153 149 158 166 177 189 196 195 188 174 156 140 130 127 128 127 124 120 119 121 128 136 144 148 150 151 164 174 182 190 204 217 228 238 249 259 263 264 250 246 249 255 261
160 160 160 158 158 159 161 163 160 159 160 163 165 163 162 165 168 169 171 179 178 166 147 136 137 141 148 158 168 175 180 187 179 160 136 124 116 112 110 109 114 118 122 125 131 138 146 153 159 163 166 170 180 184 187 193 207 220 232 241 248 255 261 264 253 248 248 254 261
159 158 157 156 156 157 157 156 153 154 158 163 164 163 162 164 167 171 173 174 161 140 125 124 130 140 153 160 157 154 148 137 120 108 102 102 105 108 111 113 118 124 128 133 142 151 157 158 160 163 167 174 181 183 188 200 213 223 233 243 249 254 259 261 258 256 258 260 267
157 156 155 153 154 153 151 151 151 154 158 160 161 160 160 158 160 162 162 154 137 126 121 125 128 123 112 100 103 104 103 100 97 96 96 97 101 106 112 119 125 129 132 135 142 149 152 147 150 155 162 168 173 178 188 204 217 228 242 257 268 277 283 286 279 272 270 270 273
154 153 152 151 151 150 148 150 150 152 154 154 154 153 150 141 141 143 142 135 124 121 121 125 117 103 90 79 83 88 92 93 95 96 98 100 102 105 109 115 121 124 126 127 130 132 134 137 146 154 157 159 162 169 180 194 206 228 255 281 295 303 308 312 305 294 286 285 286
151 150 149 149 149 149 148 148 146 146 146 145 143 139 133 125 126 126 124 119 116 117 118 116 107 99 92 86 84 87 92 95 97 99 102 104 106 108 111 115 119 122 122 122 123 127 134 147 156 159 156 150 153 158 166 174 185 209 254 295 312 321 325 329 325 318 310 304 301
147 147 148 149 149 148 146 143 138 135 133 132 130 126 121 117 116 114 109 106 109 110 109 105 99 95 94 94 91 91 93 97 99 102 104 107 111 115 119 122 125 126 125 122 123 128 138 152 156 155 150 139 141 144 148 152 151 143 335 332 339 344 345 340 329 321 314 308 304
143 145 146 147 145 142 137 129 122 118 117 117 117 115 112 110 108 105 102 102 104 104 101 97 93 93 94 97 96 95 95 98 103 106 109 113 116 118 119 119 118 116 113 111 111 115 124 137 140 138 132 127 125 114 95 75 49 33 20 3 4 6 1 340 322 315 310 308 307
134 134 133 131 127 123 118 113 110 109 109 108 106 105 104 102 101 100 98 96 96 96 96 95 95 96 97 98 97 97 98 101 105 107 109 109 107 105 104 103 99 94 90 88 90 91 95 104 106 107 107 104 95 80 61 47 42 37 28 14 21 18 3 337 328 324 321 319 320
120 116 111 106 105 105 105 107 108 108 106 102 99 97 95 94 93 92 92 90 90 91 92 95 97 98 98 96 95 95 96 97 100 100 99 94 90 87 86 85 81 75 70 68 69 69 68 69 66 65 63 62 61 58 53 48 54 50 41 31 35 28 15 2 358 353 346 340 339
108 104 101 99 100 102 105 107 107 104 101 97 94 91 89 88 88 88 88 88 88 88 89 91 92 94 94 94 94 94 94 92 91 91 89 87 82 78 75 74 69 63 58 58 58 56 55 58 57 55 54 54 55 55 54 51 53 50 44 38 38 36 30 24 19 14 7 2 359
105 103 101 101 103 105 107 106 103 100 97 95 93 92 91 91 91 91 91 90 90 89 89 88 87 88 90 94 96 97 96 93 89 87 85 85 82 79 75 73 69 64 60 60 63 63 63 65 63 63 64 67 65 63 59 56 52 48 45 44 47 47 44 40 33 28 23 18 15
108 107 106 105 106 107 107 105 102 99 97 97 96 96 95 95 96 95 94 93 92 90 89 87 85 85 87 91 94 96 96 95 92 89 87 85 85 83 81 78 73 69 68 73 81 84 86 86 84 84 85 84 77 70 64 59 56 55 56 56 57 57 55 52 46 40 36 30 25
110 108 108 107 107 106 105 103 101 100 99 99 99 99 99 99 99 97 95 93 91 90 90 89 88 86 86 88 89 91 91 91 90 90 89 87 87 87 86 84 80 75 73 81 84 85 86 90 95 98 96 89 81 75 68 59 56 58 60 59 58 59 59 57 53 49 45 41 33
110 108 108 108 107 105 103 102 102 102 102 102 101 100 100 99 98 97 96 95 93 92 91 90 89 88 87 87 86 85 85 85 86 88 89 89 88 87 86 86 84 80 80 86 85 83 81 80 81 82 84 83 80 76 71 64 59 58 57 56 55 55 55 54 52 50 48 47 42
110 109 109 108 106 104 103 103 103 103 103 102 102 101 101 100 99 97 96 95 95 93 91 89 88 87 86 85 84 84 84 85 85 87 87 88 87 86 86 86 86 88 91 93 91 87 82 77 75 74 76 79 78 75 73 71 66 63 60 57 54 51 50 49 47 45 45 44 43
112 111 110 107 105 104 103 103 103 102 102 102 102 102 102 101 100 99 98 98 97 95 92 89 88 87 85 84 84 86 87 88 87 87 87 86 85 85 85 85 88 93 98 99 94 89 83 78 75 74 75 79 80 78 75 72 70 66 61 57 54 51 49 46 43 41 40 40 40
114 113 110 107 106 104 104 103 103 103 103 103 103 102 101 100 99 99 99 98 96 94 92 92 91 89 89 89 89 89 89 90 90 90 89 88 86 84 84 84 86 91 95 97 92 88 83 80 77 76 75 75 76 73 67 62 61 60 59 56 53 52 51 48 44 40 38 38 38
115 113 110 108 106 105 104 104 104 105 104 104 103 102 100 98 97 96 95 93 91 91 92 94 95 94 93 94 93 93 92 92 92 91 90 88 86 83 82 80 81 83 86 88 87 86 84 83 80 78 76 73 72 70 65 61 60 59 58 56 54 54 53 51 47 43 40 36 35
114 112 109 107 106 105 105 105 105 105 105 104 102 100 98 95 93 92 91 91 91 92 94 95 95 95 95 95 94 94 93 92 91 90 89 87 85 83 80 78 76 76 79 82 85 86 85 84 81 79 77 75 74 72 69 66 64 62 59 56 54 53 52 52 47 42 39 36 33
113 111 109 107 106 106 106 106 105 104 103 102 100 97 95 93 93 93 94 95 97 97 98 97 97 97 96 95 94 93 92 91 90 88 87 86 85 83 81 78 76 77 79 82 85 85 84 83 81 80 78 77 77 76 75 73 69 66 63 59 55 51 49 47 45 41 38 35 32
113 111 109 108 108 107 106 106 105 104 102 100 97 96 95 95 95 95 95 96 97 98 98 98 98 98 98 97 96 94 93 91 89 88 86 85 85 84 82 80 78 79 80 83 84 84 83 82 81 80 78 77 77 77 76 75 73 70 66 61 56 51 47 44 41 38 35 33 31
113 112 110 109 109 108 108 107 105 104 102 99 97 97 97 97 97 96 95 95 95 95 95 96 97 97 97 97 97 96 95 93 90 88 86 85 84 83 82 80 79 79 80 82 82 82 81 80 79 78 77 75 75 74 73 73 73 70 67 64 58 52 46 41 38 35 33 31 28
115 113 112 111 110 110 109 108 106 104 102 100 99 98 98 97 97 98 98 98 97 96 95 94 95 95 95 95 95 95 95 94 92 90 88 87 86 84 83 82 81 79 79 79 79 79 78 77 76 76 75 74 73 73 72 72 71 69 67 64 59 54 49 43 38 33 30 28 26
116 115 114 113 112 111 111 109 107 105 103 102 101 101 100 99 99 101 102 102 101 99 98 97 96 96 95 93 92 92 92 93 93 92 91 90 89 88 86 84 82 79 77 76 76 75 74 73 73 73 73 73 73 73 72 71 70 68 65 63 59 55 51 48 42 36 31 27 25
117 116 115 114 113 113 112 110 108 106 104 104 104 104 104 103 103 104 104 104 102 101 99 98 96 95 93 92 91 90 90 92 93 93 92 91 90 89 88 86 82 79 76 74 74 73 71 70 69 69 70 72 72 72 70 69 69 67 65 63 60 55 52 51 47 42 37 32 28
117 116 116 115 115 114 112 111 109 107 107 106 106 106 106 106 106 105 105 104 103 102 100 98 96 95 94 93 92 90 89 89 90 92 92 92 91 90 89 87 83 80 77 74 74 72 70 68 66 65 66 68 68 68 67 65 64 64 64 64 62 58 54 52 51 47 43 38 35
116 115 115 115 114 113 112 110 109 109 109 109 108 108 107 106 106 105 104 103 103 102 101 100 98 97 96 95 93 90 88 86 87 88 90 91 92 92 91 90 87 83 80 76 75 73 71 68 66 64 62 64 64 64 63 62 61 61 62 64 64 61 57 53 51 49 46 43 40
114 114 114 113 113 113 111 110 109 110 110 110 109 108 107 107 106 106 105 103 103 102 102 101 100 99 97 95 93 90 88 85 84 85 87 90 93 94 94 93 90 87 83 79 76 74 71 68 65 62 59 60 59 60 61 63 63 62 61 60 61 60 57 53 49 46 44 42 41
112 112 112 111 111 112 111 111 110 110 110 109 109 109 109 109 109 108 107 106 105 104 103 102 101 100 98 95 93 91 89 86 84 84 85 89 91 93 93 92 91 88 85 81 77 74 71 68 65 61 57 55 56 57 59 63 65 64 62 60 57 56 55 52 48 44 42 39 40